This demonstration page uses our WeatherBlox Daily Observations layout. Learn more.

Left ArrowRight Arrow

Hourly Observations for March 6, 2019

Temp ( °F °C ) Dew Point ( °F °C ) Humidity (%) Winds ( mph kmh ) Pressure ( in mb ) Visibility ( mi km ) Precip ( " mm )
12:51 am 00:51 Clear 56 13.3 25 -3.9 30 30 N 3 6 29.95 1014 10 16 N/A
1:51 am 01:51 Clear 51 10.6 25 -3.9 36 36 N N/A 29.94 1014 10 16 N/A
2:51 am 02:51 Clear 47 8.3 26 -3.3 44 44 N 5 7 29.95 1014 10 16 N/A
3:51 am 03:51 Clear 49 9.4 26 -3.3 41 41 E 6 9 29.94 1014 10 16 N/A
4:51 am 04:51 Clear 46 7.8 27 -2.8 47 47 NW 6 9 29.97 1015 10 16 N/A
5:51 am 05:51 Clear 40 4.4 26 -3.3 58 58 N N/A 30.00 1016 10 16 N/A
6:51 am 06:51 Sunny 43 6.1 27 -2.8 53 53 ENE 5 7 30.03 1017 10 16 N/A
7:51 am 07:51 Sunny 52 11.1 27 -2.8 38 38 N N/A 30.02 1017 10 16 N/A
8:51 am 08:51 Sunny 62 16.7 25 -3.9 24 24 ESE 13 20 30.02 1017 10 16 N/A
9:51 am 09:51 Sunny 65 18.3 24 -4.4 21 21 ESE 10 17 30.02 1017 10 16 N/A
10:51 am 10:51 Sunny 68 20 26 -3.3 21 21 ESE 9 15 30.00 1016 10 16 N/A
11:51 am 11:51 Sunny 73 22.8 24 -4.4 16 16 ESE 9 15 29.96 1014 10 16 N/A
12:51 pm 12:51 Sunny 76 24.4 23 -5 14 14 E 7 11 29.92 1013 10 16 N/A
1:51 pm 13:51 Sunny 80 26.7 22 -5.6 11 11 E 7 11 29.88 1012 10 16 N/A
2:51 pm 14:51 Sunny 81 27.2 22 -5.6 11 11 VRB 5 7 29.86 1011 10 16 N/A
3:51 pm 15:51 Sunny 81 27.2 25 -3.9 13 13 W 9 15 29.85 1011 10 16 N/A
4:51 pm 16:51 Sunny 80 26.7 25 -3.9 13 13 NNW 14 22 29.85 1011 10 16 N/A
5:51 pm 17:51 Sunny 76 24.4 27 -2.8 16 16 NW 5 7 29.88 1012 10 16 N/A
6:51 pm 18:51 Clear 71 21.7 28 -2.2 20 20 WSW 6 9 29.89 1012 10 16 N/A
7:51 pm 19:51 Clear 69 20.6 27 -2.8 21 21 WNW 9 15 29.90 1013 10 16 N/A
8:51 pm 20:51 Clear 66 18.9 24 -4.4 20 20 WNW 10 17 29.90 1012 10 16 N/A
9:51 pm 21:51 Clear 60 15.6 25 -3.9 26 26 W 8 13 29.91 1013 10 16 N/A
10:51 pm 22:51 Clear 60 15.6 25 -3.9 26 26 NW 10 17 29.92 1013 10 16 N/A
11:51 pm 23:51 Clear 62 16.7 24 -4.4 23 23 W 3 6 29.92 1013 10 16 N/A

Powered by AerisWeather